Location: Goll?ig?dem
(16.6773°N, 80.7332°E)
Time: 06:28:44
(UTC+00:00)

Cosmos 1674 - Pass Details

Date: 21 April 2021
Orbit: 494 x 515 km, 82.5° (Epoch: 05 May)

Event Time Altitude Azimuth Distance (km) Brightness Sun altitude
Exits shadow 23:10:41 12° 191° (S) 1,566 4.9 -16.2°
Maximum altitude 23:14:04 71° 274° (W) 537 2.5 -15.4°
Drops below altitude 10° 23:17:50 10° 359° (N) 1,723 5.6 -14.6°
Sets 23:19:58 0° 2° (N) 2,613 6.5 -14.1°
